sat.trackr.live / text

‹ back to catalog

STARLINK-11593 [DTC]

NORAD 63318 · 2025-057M

PAYLOAD ACTIVE UNKNOWN

§ Identity

Operator
Country
US
Launch date
2025-03-18
Launch site
AFETR
Launch vehicle
Mass (kg)
RCS (m²)

Purposes: comms

External: N2YO · Heavens-Above · Gunter

§ Orbital elements

Epoch: 2026-05-25T01:45:45.604800Z

Period
91.67 min
Inclination
42.9998°
Eccentricity
0.0001808
Mean motion
15.70910394 rev/d
Perigee alt
355.1 km
Apogee alt
357.5 km
Semi-major
6,734.4 km
B*
1.5930e-3
RAAN
163.8574°
Arg perigee
259.0483°
Mean anomaly
101.0181°
Rev number
6,922

§ Raw data

STARLINK-11593 [DTC]1 63318U 25057M   26145.07344450  .00209817  00000+0  15930-2 0  99912 63318  42.9998 163.8574 0001808 259.0483 101.0181 15.70910394 69226

JSON: /api/v1/satellites/63318 · /tle

For live sub-satellite position, see the globe view (requires WebGL).

§ Visibility from observer

Set your observer location to see the next 7 days of passes ≥ 10°. The values pass through the URL so the page stays shareable.

No JS? Fill the form by hand. The geolocation button needs JavaScript.